CW6294 Alexandria VA US current weather conditions

sailwx.info

Wind from 287

Air temperature 24.4° C
Dewpoint 21.6° C

Last reported at 2020-Aug-05 12:58 UTC.
Time now 2020-Aug-05 13:30 UTC

Location: N 38°49' W 077°06'.
View on Google Maps.

See reports from other nearby stations

  
Tides and Currents Weather Stations Pressure Air Temp Water Temp Dewpoint Dewpoint Depression Visibility Wind Speed Wind Dir Waves Ship Positions
date/time (UTC)wind fromknots sea level pressurealtimeterstation pressurevisibilityair tempwater tempwave heightnotes
2020-Aug-05 13:08 302 24.4
2020-Aug-05 12:58 287 24.4
2020-Aug-05 12:48 333 24.4
2020-Aug-05 12:38 312 24.4
2020-Aug-05 12:28 290 24.4
2020-Aug-05 12:18 302 23.9
2020-Aug-05 12:08 016 23.9
2020-Aug-05 11:58 306 23.3
2020-Aug-05 11:47 009 23.3
2020-Aug-05 11:38 037 22.8
2020-Aug-05 11:27 037 22.8
2020-Aug-05 11:17 307 22.2
2020-Aug-05 11:07 308 22.2
2020-Aug-05 10:57 308 22.2
2020-Aug-05 10:46 309 21.7
2020-Aug-05 10:36 309 21.7
2020-Aug-05 10:26 309 22.2
2020-Aug-05 10:16 309 21.7
2020-Aug-05 10:05 309 21.7
2020-Aug-05 09:55 309 21.7
2020-Aug-05 09:45 309 21.7
2020-Aug-05 09:35 309 21.7
2020-Aug-05 09:25 309 21.7
2020-Aug-05 09:15 309 21.7
2020-Aug-05 09:05 309 22.2
2020-Aug-05 08:55 309 22.2
2020-Aug-05 08:45 309 22.2
2020-Aug-05 08:34 309 22.8
2020-Aug-05 08:24 309 22.8
2020-Aug-05 08:14 309 23.3
2020-Aug-05 08:04 306 23.3
2020-Aug-05 07:54 306 23.3
2020-Aug-05 07:44 307 23.9
2020-Aug-05 07:34 303 23.9
2020-Aug-05 07:23 312 23.9
2020-Aug-05 07:13 311 23.9
2020-Aug-05 07:03 288 23.3
2020-Aug-05 06:53 302 23.3
2020-Aug-05 06:43 290 23.3
2020-Aug-05 06:32 281 22.8
2020-Aug-05 06:22 274 22.8
2020-Aug-05 06:12 236 22.8
2020-Aug-05 06:02 236 22.8
2020-Aug-05 05:52 236 22.8
2020-Aug-05 05:41 236 22.8
2020-Aug-05 05:31 236 22.8
2020-Aug-05 05:20 236 23.3
2020-Aug-05 05:10 234 23.3
2020-Aug-05 05:00 234 23.3
2020-Aug-05 04:50 234 23.3
2020-Aug-05 04:40 234 23.3
2020-Aug-05 04:30 233 23.3
2020-Aug-05 04:19 233 23.3
2020-Aug-05 04:09 233 23.3
2020-Aug-05 03:59 233 23.3
2020-Aug-05 03:49 233 23.3
2020-Aug-05 03:39 233 23.9
2020-Aug-05 03:28 233 23.9
2020-Aug-05 03:18 233 23.9
2020-Aug-05 03:08 233 23.9
2020-Aug-05 02:58 233 23.9
2020-Aug-05 02:48 233 24.4
2020-Aug-05 02:38 232 24.4
2020-Aug-05 02:28 233 25.0
2020-Aug-05 02:18 265 0 gusting 13 24.4
2020-Aug-05 02:08 302 25.0
2020-Aug-05 01:58 298 0 gusting 6 25.0
2020-Aug-05 01:48 292 24.4
2020-Aug-05 01:38 190 24.4
2020-Aug-05 01:27 190 24.4
2020-Aug-05 01:17 190 24.4
2020-Aug-05 01:07 190 24.4
2020-Aug-05 00:57 140 24.4
2020-Aug-05 00:47 196 24.4
2020-Aug-05 00:37 232 25.0
2020-Aug-05 00:27 190 25.0
2020-Aug-05 00:17 190 25.0
2020-Aug-05 00:07 190 25.6
2020-Aug-04 23:57 153 25.6
2020-Aug-04 23:47 153 25.6
2020-Aug-04 23:37 153 25.6
2020-Aug-04 23:26 153 26.1
2020-Aug-04 23:16 153 26.1
2020-Aug-04 23:06 153 26.1
2020-Aug-04 22:55 174 26.1
2020-Aug-04 22:45 174 26.1
2020-Aug-04 22:35 174 26.1
2020-Aug-04 22:25 225 26.1
2020-Aug-04 22:15 219 26.7
2020-Aug-04 22:05 166 3 gusting 13 27.2
2020-Aug-04 21:55 221 28.3
2020-Aug-04 21:45 161 28.9
2020-Aug-04 21:35 133 28.9
2020-Aug-04 21:25 211 28.9
2020-Aug-04 21:15 194 29.4
2020-Aug-04 21:05 182 30.6
2020-Aug-04 20:54 230 30.6
2020-Aug-04 20:45 304 30.6
2020-Aug-04 20:34 200 31.7
2020-Aug-04 20:24 254 31.7
2020-Aug-04 20:14 246 3 gusting 15 31.1
2020-Aug-04 20:04 325 2 gusting 9 30.6
2020-Aug-04 19:54 185 1 gusting 10 30.6
2020-Aug-04 19:44 204 30.6
2020-Aug-04 19:34 219 1 gusting 10 30.0
2020-Aug-04 19:24 245 2 gusting 13 29.4
2020-Aug-04 19:14 296 1 gusting 12 30.0
2020-Aug-04 19:04 228 2 gusting 10 29.4
2020-Aug-04 18:54 282 3 gusting 9 29.4
2020-Aug-04 18:44 254 2 gusting 10 29.4
2020-Aug-04 18:34 217 1 gusting 8 28.9
2020-Aug-04 18:24 215 3 gusting 9 28.3
2020-Aug-04 18:14 286 1 gusting 10 28.3
2020-Aug-04 18:04 288 4 gusting 11 28.3
2020-Aug-04 17:54 342 1 gusting 10 27.8
2020-Aug-04 17:44 230 3 gusting 10 27.2
2020-Aug-04 17:34 272 4 gusting 9 26.7
2020-Aug-04 17:24 294 3 gusting 8 26.1
2020-Aug-04 17:14 253 5 gusting 13 25.6
2020-Aug-04 17:04 232 5 gusting 13 25.0
2020-Aug-04 16:54 331 6 gusting 15 25.6
2020-Aug-04 16:44 294 5 gusting 15 25.0
2020-Aug-04 16:33 323 5 gusting 10 25.0
2020-Aug-04 16:23 261 4 gusting 9 25.0
2020-Aug-04 16:13 298 3 gusting 13 24.4
2020-Aug-04 16:03 336 2 gusting 8 24.4
2020-Aug-04 15:53 290 4 gusting 10 23.9
2020-Aug-04 15:43 292 4 gusting 10 23.3
2020-Aug-04 15:33 302 5 gusting 13 22.8
2020-Aug-04 15:23 315 4 gusting 13 22.2
2020-Aug-04 15:13 309 6 gusting 18 22.2
2020-Aug-04 15:03 284 5 gusting 13 21.7
2020-Aug-04 14:53 299 4 gusting 12 21.7
2020-Aug-04 14:43 331 3 gusting 10 21.7
2020-Aug-04 14:33 306 5 gusting 11 21.1
2020-Aug-04 14:23 283 2 gusting 10 20.6
2020-Aug-04 14:13 082 2 gusting 8 20.6
2020-Aug-04 14:03 355 4 gusting 13 20.6
2020-Aug-04 13:53 355 4 gusting 13 20.6
2020-Aug-04 13:43 355 6 gusting 23 20.0
2020-Aug-04 13:33 282 6 gusting 20 20.0
2020-Aug-04 13:23 301 7 gusting 20 20.0
2020-Aug-04 13:13 348 6 gusting 16 20.0
2020-Aug-04 13:03 20.0
2020-Aug-04 12:53 323 6 gusting 19 20.0
2020-Aug-04 12:43 304 6 gusting 18 20.6
2020-Aug-04 12:33 329 6 gusting 16 20.6
2020-Aug-04 12:23 286 4 gusting 21 20.6
2020-Aug-04 12:13 346 2 gusting 11 20.6
2020-Aug-04 12:02 264 3 gusting 13 20.6
2020-Aug-04 11:52 321 2 gusting 12 20.6
2020-Aug-04 11:42 334 1 gusting 13 20.6
2020-Aug-04 11:32 328 1 gusting 8 20.6
2020-Aug-04 11:22 333 1 gusting 10 20.6
2020-Aug-04 11:12 005 2 gusting 15 20.6
2020-Aug-04 11:02 296 3 gusting 13 20.6
2020-Aug-04 10:52 306 2 gusting 11 21.1
2020-Aug-04 10:42 355 1 gusting 9 21.1
2020-Aug-04 10:32 324 0 gusting 6 21.1
2020-Aug-04 10:22 324 21.1
2020-Aug-04 10:12 21.1
2020-Aug-04 10:02 059 21.1
2020-Aug-04 09:52 022 21.1
2020-Aug-04 09:42 279 21.1
2020-Aug-04 09:32 21.1
2020-Aug-04 09:22 050 21.1
2020-Aug-04 09:11 078 21.1
2020-Aug-04 09:01 070 21.1
2020-Aug-04 08:51 080 21.1
2020-Aug-04 08:41 071 21.1
2020-Aug-04 08:31 071 21.1
2020-Aug-04 08:21 071 21.1
2020-Aug-04 08:10 074 21.1
2020-Aug-04 08:00 074 21.7
2020-Aug-04 07:50 071 21.7
2020-Aug-04 07:40 082 21.7
2020-Aug-04 07:30 115 21.7
2020-Aug-04 07:19 073 21.7
2020-Aug-04 07:09 121 21.7
2020-Aug-04 06:59 101 21.7
2020-Aug-04 06:49 093 21.7
2020-Aug-04 06:39 106 21.7
2020-Aug-04 06:29 107 21.7
2020-Aug-04 06:19 107 21.7
2020-Aug-04 06:09 134 22.2
2020-Aug-04 05:58 134 22.2
2020-Aug-04 05:48 134 22.2
2020-Aug-04 05:38 134 22.2
2020-Aug-04 05:28 134 22.2
2020-Aug-04 05:18 134 22.2
2020-Aug-04 05:08 134 22.2
2020-Aug-04 04:58 134 22.2
2020-Aug-04 04:48 103 22.8
2020-Aug-04 04:38 088 22.8
2020-Aug-04 04:28 155 22.8
2020-Aug-04 04:18 155 22.8
2020-Aug-04 04:07 155 22.8
2020-Aug-04 03:57 156 22.8
2020-Aug-04 03:46 155 22.8
2020-Aug-04 03:36 107 22.2
2020-Aug-04 03:27 220 22.2
2020-Aug-04 03:16 221 22.8
2020-Aug-04 03:06 228 22.8
2020-Aug-04 02:56 228 22.8
2020-Aug-04 02:46 229 22.8
2020-Aug-04 02:36 229 22.2
2020-Aug-04 02:26 229 22.2
2020-Aug-04 02:16 228 22.2
2020-Aug-04 02:05 202 22.2
2020-Aug-04 01:55 169 22.2
2020-Aug-04 01:45 186 22.2
2020-Aug-04 01:35 184 22.2
2020-Aug-04 01:25 223 22.2
2020-Aug-04 01:15 229 22.2
2020-Aug-04 01:05 121 22.2
2020-Aug-04 00:55 120 22.2
2020-Aug-04 00:45 120 22.2
2020-Aug-04 00:34 199 22.2
2020-Aug-04 00:24 199 22.2
2020-Aug-04 00:14 199 22.2
2020-Aug-04 00:04 175 22.2
2020-Aug-03 23:54 101 22.2
2020-Aug-03 23:44 101 22.2
2020-Aug-03 23:34 221 22.2
2020-Aug-03 23:23 225 22.2
2020-Aug-03 23:13 292 22.2
2020-Aug-03 23:03 214 22.2
2020-Aug-03 22:53 227 22.2
2020-Aug-03 22:43 219 22.8
2020-Aug-03 22:33 234 22.8
2020-Aug-03 22:23 078 23.3
2020-Aug-03 22:13 078 22.8
2020-Aug-03 22:03 078 22.8
2020-Aug-03 21:52 078 22.8
2020-Aug-03 21:42 078 22.8
2020-Aug-03 21:32 078 22.8
2020-Aug-03 21:22 111 22.2
2020-Aug-03 21:12 245 22.2
2020-Aug-03 21:02 346 22.8
2020-Aug-03 20:52 174 1 gusting 12 23.3
2020-Aug-03 20:42 170 4 gusting 17 24.4
2020-Aug-03 20:32 182 26.7
2020-Aug-03 20:22 183 26.7
2020-Aug-03 20:11 183 26.7
2020-Aug-03 20:01 183 27.2
2020-Aug-03 19:51 183 27.8
2020-Aug-03 19:41 183 27.8
2020-Aug-03 19:31 183 27.8
2020-Aug-03 19:21 183 27.8
2020-Aug-03 19:11 183 27.8
2020-Aug-03 19:01 165 27.8
2020-Aug-03 18:51 100 28.3
2020-Aug-03 18:40 099 28.9
2020-Aug-03 18:30 092 29.4
2020-Aug-03 18:20 115 0 gusting 6 29.4
2020-Aug-03 18:10 207 30.0
2020-Aug-03 18:00 063 0 gusting 6 29.4
2020-Aug-03 17:50 173 0 gusting 4 30.6
2020-Aug-03 17:40 082 0 gusting 5 30.6
2020-Aug-03 17:30 163 30.0
2020-Aug-03 17:20 210 0 gusting 6 30.0
2020-Aug-03 17:10 161 0 gusting 6 30.0
2020-Aug-03 17:00 178 0 gusting 6 30.0
2020-Aug-03 16:50 096 0 gusting 6 30.6
2020-Aug-03 16:40 179 1 gusting 6 30.0
2020-Aug-03 16:30 133 30.6
2020-Aug-03 16:20 226 30.0
2020-Aug-03 16:10 230 0 gusting 5 31.1
2020-Aug-03 16:00 080 31.1
2020-Aug-03 15:49 059 30.6
2020-Aug-03 15:39 169 0 gusting 6 30.6
2020-Aug-03 15:30 066 0 gusting 6 30.0
2020-Aug-03 15:19 121 30.0
2020-Aug-03 15:09 229 29.4
2020-Aug-03 14:59 102 29.4
2020-Aug-03 14:49 083 1 gusting 6 28.9
2020-Aug-03 14:38 076 0 gusting 6 29.4
2020-Aug-03 14:28 091 29.4
2020-Aug-03 14:18 088 28.3
2020-Aug-03 14:08 279 28.3
2020-Aug-03 13:58 031 27.8
2020-Aug-03 13:48 306 27.8
2020-Aug-03 13:38 296 27.2
2020-Aug-03 13:28 310 27.8
2020-Aug-03 13:18 333 27.2
2020-Aug-03 13:08 345 26.7